• In Hungary
  • List of Countries
  • For 7 days
  • Water Temperature
  • Satellite Maps
  • Weather Map
  • News
  • Weather Widgets
  • user-avatar
    Login

    Hourly Weather Lugovaya

    Today, 23 July, Monday

    Time Temperature Precipitation Wind Pressure Humidity
    00:00 +19°C° 0.1 mm 5 mps 743 mmHg 94%
    01:00 +19°C° 0 mm 5 mps 743 mmHg 94%
    02:00 +19°C° 0 mm 5 mps 743 mmHg 94%
    03:00 +19°C° 0 mm 4 mps 743 mmHg 95%
    04:00 +18°C° 0.2 mm 4 mps 744 mmHg 94%
    05:00 +18°C° 0.2 mm 4 mps 744 mmHg 94%
    06:00 +17°C° 0.2 mm 5 mps 744 mmHg 94%
    07:00 +17°C° 0.1 mm 5 mps 744 mmHg 92%
    08:00 +19°C° 0.1 mm 5 mps 744 mmHg 90%
    09:00 +19°C° 0.1 mm 5 mps 744 mmHg 88%
    10:00 +21°C° 0.1 mm 5 mps 744 mmHg 86%
    11:00 +22°C° 0.1 mm 5 mps 744 mmHg 83%
    12:00 +23°C° 0.1 mm 5 mps 744 mmHg 80%
    13:00 +23°C° 0.1 mm 5 mps 744 mmHg 78%
    14:00 +25°C° 0.1 mm 5 mps 744 mmHg 77%
    15:00 +26°C° 0.1 mm 5 mps 744 mmHg 76%
    16:00 +25°C° 0.1 mm 5 mps 744 mmHg 78%
    17:00 +25°C° 0.1 mm 4 mps 744 mmHg 80%
    18:00 +25°C° 0.1 mm 4 mps 744 mmHg 82%
    19:00 +23°C° 0.8 mm 4 mps 744 mmHg 85%
    20:00 +22°C° 0.8 mm 4 mps 744 mmHg 88%
    21:00 +21°C° 0.8 mm 4 mps 744 mmHg 91%
    22:00 +21°C° 0.5 mm 4 mps 744 mmHg 93%
    23:00 +20°C° 0.5 mm 4 mps 744 mmHg 94%

    Tomorrow, 24 July, Tuesday

    Time Temperature Precipitation Wind Pressure Humidity
    00:00 +20°C° 0.5 mm 4 mps 744 mmHg 95%
    01:00 +20°C° 0 mm 3 mps 744 mmHg 95%
    02:00 +19°C° 0 mm 3 mps 744 mmHg 96%
    03:00 +19°C° 0 mm 3 mps 744 mmHg 96%
    04:00 +19°C° 0 mm 3 mps 745 mmHg 96%
    05:00 +19°C° 0 mm 3 mps 745 mmHg 95%
    06:00 +20°C° 0 mm 3 mps 745 mmHg 95%
    07:00 +21°C° 0 mm 3 mps 745 mmHg 90%
    08:00 +24°C° 0 mm 3 mps 745 mmHg 85%
    09:00 +25°C° 0 mm 3 mps 746 mmHg 80%
    10:00 +26°C° 0.7 mm 3 mps 746 mmHg 75%
    11:00 +27°C° 0.7 mm 3 mps 746 mmHg 70%
    12:00 +28°C° 0.7 mm 3 mps 746 mmHg 65%
    13:00 +29°C° 0.5 mm 4 mps 746 mmHg 65%
    14:00 +29°C° 0.5 mm 4 mps 746 mmHg 65%
    15:00 +29°C° 0.5 mm 4 mps 746 mmHg 65%
    16:00 +28°C° 0.5 mm 4 mps 746 mmHg 71%
    17:00 +27°C° 0.5 mm 4 mps 747 mmHg 77%
    18:00 +25°C° 0.5 mm 4 mps 747 mmHg 83%
    19:00 +23°C° 0.1 mm 4 mps 747 mmHg 84%
    20:00 +22°C° 0.1 mm 4 mps 747 mmHg 86%
    21:00 +21°C° 0.1 mm 4 mps 748 mmHg 88%
    22:00 +20°C° 0.1 mm 4 mps 748 mmHg 88%
    23:00 +20°C° 0.1 mm 3 mps 748 mmHg 88%

    Day after tomorrow, 25 July, Wednesday

    Time Temperature Precipitation Wind Pressure Humidity
    00:00 +19°C° 0.1 mm 3 mps 748 mmHg 87%
    01:00 +19°C° 0 mm 3 mps 748 mmHg 87%
    02:00 +18°C° 0 mm 3 mps 748 mmHg 86%
    03:00 +17°C° 0 mm 3 mps 748 mmHg 85%
    04:00 +17°C° 0 mm 3 mps 748 mmHg 83%
    05:00 +17°C° 0 mm 4 mps 748 mmHg 81%
    06:00 +17°C° 0 mm 4 mps 748 mmHg 79%
    07:00 +18°C° 0 mm 4 mps 749 mmHg 76%
    08:00 +19°C° 0 mm 4 mps 749 mmHg 74%
    09:00 +19°C° 0 mm 5 mps 749 mmHg 71%
    10:00 +19°C° 0.1 mm 5 mps 749 mmHg 73%
    11:00 +19°C° 0.1 mm 6 mps 749 mmHg 76%
    12:00 +19°C° 0.1 mm 6 mps 749 mmHg 78%
    13:00 +20°C° 0.4 mm 5 mps 749 mmHg 80%
    14:00 +20°C° 0.4 mm 4 mps 749 mmHg 82%
    15:00 +21°C° 0.4 mm 4 mps 749 mmHg 85%
    16:00 +22°C° 0.3 mm 4 mps 749 mmHg 83%
    17:00 +23°C° 0.3 mm 4 mps 749 mmHg 81%
    18:00 +25°C° 0.3 mm 4 mps 749 mmHg 79%
    19:00 +24°C° 0.1 mm 3 mps 749 mmHg 81%
    20:00 +22°C° 0.1 mm 3 mps 749 mmHg 82%
    21:00 +21°C° 0.1 mm 3 mps 749 mmHg 84%
    22:00 +20°C° 0.1 mm 3 mps 749 mmHg 83%
    23:00 +20°C° 0.1 mm 3 mps 749 mmHg 82%

    26 July, Thursday

    Time Temperature Precipitation Wind Pressure Humidity
    00:00 +19°C° 0.1 mm 3 mps 749 mmHg 81%
    01:00 +19°C° 0.1 mm 3 mps 749 mmHg 82%
    02:00 +19°C° 0.1 mm 3 mps 749 mmHg 83%
    03:00 +18°C° 0.1 mm 3 mps 749 mmHg 84%
    04:00 +19°C° 0 mm 3 mps 749 mmHg 83%
    05:00 +19°C° 0 mm 3 mps 749 mmHg 82%
    06:00 +19°C° 0 mm 4 mps 750 mmHg 82%
    07:00 +21°C° 0 mm 4 mps 750 mmHg 77%
    08:00 +23°C° 0 mm 4 mps 750 mmHg 71%
    09:00 +26°C° 0 mm 5 mps 750 mmHg 66%
    10:00 +27°C° 0 mm 5 mps 750 mmHg 64%
    11:00 +28°C° 0 mm 5 mps 750 mmHg 62%
    12:00 +29°C° 0 mm 5 mps 750 mmHg 60%
    13:00 +30°C° 0 mm 5 mps 750 mmHg 59%
    14:00 +30°C° 0 mm 5 mps 750 mmHg 58%
    15:00 +32°C° 0 mm 6 mps 750 mmHg 57%
    16:00 +30°C° 0 mm 5 mps 750 mmHg 61%
    17:00 +30°C° 0 mm 5 mps 750 mmHg 64%
    18:00 +29°C° 0 mm 4 mps 750 mmHg 68%
    19:00 +28°C° 0 mm 4 mps 751 mmHg 70%
    20:00 +27°C° 0 mm 4 mps 751 mmHg 73%
    21:00 +25°C° 0 mm 4 mps 751 mmHg 75%
    22:00 +25°C° 0 mm 4 mps 751 mmHg 77%
    23:00 +23°C° 0 mm 4 mps 751 mmHg 78%

    27 July, Friday

    Time Temperature Precipitation Wind Pressure Humidity
    00:00 +22°C° 0 mm 4 mps 751 mmHg 79%
    01:00 +22°C° 0 mm 4 mps 752 mmHg 79%
    02:00 +21°C° 0 mm 4 mps 752 mmHg 79%
    03:00 +21°C° 0 mm 4 mps 752 mmHg 79%
    04:00 +21°C° 0 mm 3 mps 752 mmHg 79%
    05:00 +21°C° 0 mm 3 mps 752 mmHg 79%
    06:00 +21°C° 0 mm 3 mps 752 mmHg 79%
    07:00 +22°C° 0 mm 4 mps 752 mmHg 75%
    08:00 +25°C° 0 mm 4 mps 752 mmHg 72%
    09:00 +26°C° 0 mm 4 mps 752 mmHg 68%
    10:00 +27°C° 0 mm 4 mps 752 mmHg 63%
    11:00 +29°C° 0 mm 5 mps 752 mmHg 58%
    12:00 +30°C° 0 mm 5 mps 753 mmHg 52%
    13:00 +30°C° 0 mm 5 mps 752 mmHg 52%
    14:00 +32°C° 0 mm 5 mps 752 mmHg 51%
    15:00 +32°C° 0 mm 5 mps 752 mmHg 50%
    16:00 +30°C° 0 mm 4 mps 752 mmHg 56%
    17:00 +29°C° 0 mm 4 mps 752 mmHg 61%
    18:00 +28°C° 0 mm 3 mps 752 mmHg 67%
    19:00 +27°C° 0 mm 3 mps 752 mmHg 70%
    20:00 +26°C° 0 mm 3 mps 752 mmHg 74%
    21:00 +24°C° 0 mm 2 mps 752 mmHg 77%
    22:00 +24°C° 0 mm 2 mps 752 mmHg 76%
    23:00 +24°C° 0 mm 2 mps 752 mmHg 75%

    28 July, Saturday

    Time Temperature Precipitation Wind Pressure Humidity
    00:00 +23°C° 0 mm 2 mps 752 mmHg 73%
    01:00 +23°C° 0 mm 2 mps 752 mmHg 76%
    02:00 +21°C° 0 mm 2 mps 752 mmHg 79%
    03:00 +21°C° 0 mm 3 mps 751 mmHg 81%
    04:00 +21°C° 0 mm 3 mps 751 mmHg 81%
    05:00 +21°C° 0 mm 3 mps 751 mmHg 81%
    06:00 +21°C° 0 mm 3 mps 751 mmHg 80%
    07:00 +22°C° 0 mm 3 mps 751 mmHg 76%
    08:00 +25°C° 0 mm 3 mps 751 mmHg 71%
    09:00 +26°C° 0 mm 3 mps 751 mmHg 67%
    10:00 +27°C° 0 mm 3 mps 751 mmHg 61%
    11:00 +29°C° 0 mm 3 mps 751 mmHg 55%
    12:00 +30°C° 0 mm 4 mps 751 mmHg 49%
    13:00 +30°C° 0 mm 4 mps 751 mmHg 48%
    14:00 +32°C° 0 mm 4 mps 751 mmHg 48%
    15:00 +31°C° 0 mm 3 mps 751 mmHg 47%
    16:00 +30°C° 0 mm 3 mps 750 mmHg 51%
    17:00 +30°C° 0 mm 3 mps 750 mmHg 54%
    18:00 +30°C° 0 mm 2 mps 750 mmHg 58%
    19:00 +28°C° 0 mm 2 mps 750 mmHg 62%
    20:00 +26°C° 0 mm 2 mps 750 mmHg 65%
    21:00 +25°C° 0 mm 2 mps 750 mmHg 68%
    22:00 +24°C° 0.1 mm 2 mps 750 mmHg 70%
    23:00 +23°C° 0.1 mm 2 mps 750 mmHg 73%
    Show more